Location: Caltech
(34.1382°N, 118.1253°W)
Time: 04:07:17
(UTC-07:00)

Cosmos 1606 - Visible Passes

Search period start: 30 July 2014 00:00
Search period end: 09 August 2014 00:00
Orbit: 522 x 548 km, 82.5° (Epoch: 29 July)

Date Brightness Start Highest point End Pass type
(mag) Time Alt. Az. Time Alt. Az. Time Alt. Az.
30 Jul 4.0 21:16:07 10° NNW 21:19:53 41° W 21:23:38 10° SSW visible
31 Jul 4.0 21:07:04 10° NNW 21:10:52 43° W 21:14:38 10° SSW visible
01 Aug 3.9 20:58:02 10° NNW 21:01:51 44° W 21:05:38 10° SSW visible
02 Aug 3.9 20:48:59 10° NNW 20:52:49 46° W 20:56:37 10° SSW visible
03 Aug 3.8 20:39:56 10° NNW 20:43:48 48° W 20:47:36 10° SSW visible
04 Aug 3.8 20:30:53 10° NNW 20:34:45 50° W 20:38:35 10° SSW visible
05 Aug 3.7 20:21:50 10° NNW 20:25:43 52° W 20:29:34 10° S visible
06 Aug 3.7 20:12:46 10° NNW 20:16:41 54° W 20:20:32 10° S visible
